Dewpoint
35 27 24 28 30 30 25 24 23 25 31 29 29 30 28 31 33 33 33 31 29 29 27 29 30 31 32 35 37 38 40 42 43 44 44 45 45 45 46 46 48 49 49 49
28 24 29 31 30 27 27 26 23 26 29 28 27 27 29 30 30 32 33 32 29 30 28 29 30 31 32 35 37 39 41 42 44 44 45 46 46 46 47 48 49 51 49 50
26 28 31 28 27 25 27 25 26 22 27 28 28 24 24 33 32 34 34 33 31 31 27 28 30 30 33 35 37 39 42 43 44 44 45 47 49 47 47 48 49 51 52 52
28 29 28 25 26 24 21 30 28 26 24 17 25 18 21 31 32 33 33 32 31 28 27 29 29 30 33 35 37 39 42 43 43 44 44 45 48 49 50 50 51 51 52 54
26 27 26 26 24 24 22 28 26 27 25 25 23 19 23 28 27 31 33 32 32 27 27 28 29 31 33 36 37 38 42 42 43 43 44 45 48 49 53 55 53 51 55 57
27 29 27 26 28 28 28 28 28 28 26 17 19 21 22 22 26 25 33 34 30 27 28 28 29 31 33 36 37 39 42 42 42 43 43 44 46 48 51 52 53 54 56 58
27 26 28 28 26 29 28 21 18 16 18 15 26 22 24 24 32 27 31 33 28 27 27 26 26 29 33 35 36 38 41 41 42 42 42 43 45 46 48 49 50 51 51 52
22 22 26 27 26 24 24 21 18 9 16 15 22 20 19 24 30 31 33 31 27 26 27 26 27 29 33 35 35 38 41 40 41 42 42 42 44 45 46 48 49 49 49 49
22 23 28 28 27 26 25 23 22 19 17 17 14 15 17 26 27 29 29 26 25 25 25 25 27 29 33 34 35 36 40 40 40 41 42 41 42 43 44 45 46 46 47 47
24 24 27 28 28 28 25 24 17 20 6 9 12 15 13 21 25 27 27 24 24 24 24 24 26 29 32 34 34 35 39 39 39 40 40 39 40 42 42 43 43 44 44 45
25 25 26 27 26 24 24 23 24 19 21 14 10 11 15 14 23 26 28 26 24 23 22 23 25 28 32 34 34 34 36 38 37 38 37 38 38 38 39 39 39 39 40 41
27 28 26 25 26 26 23 23 23 18 15 18 18 15 18 23 24 25 27 29 29 22 22 23 25 28 32 33 34 34 35 37 37 36 35 35 36 37 35 35 35 35 34 34
27 21 16 19 22 22 24 24 22 21 21 18 16 14 21 22 26 26 26 28 29 22 21 23 25 28 30 33 33 33 34 35 36 35 34 34 34 34 34 34 34 33 33 33
31 25 20 20 21 21 22 24 24 20 20 18 16 15 16 17 21 25 26 28 26 21 21 22 24 26 29 32 33 33 33 34 35 34 33 33 33 33 33 34 33 33 33 33
30 31 23 24 23 22 21 22 25 21 20 18 17 17 18 18 18 21 24 28 23 20 21 22 23 25 28 31 33 33 33 34 33 33 32 32 32 32 32 32 32 32 32 32
31 29 24 18 22 22 22 21 22 25 24 21 20 20 21 20 19 19 22 27 23 21 20 21 22 24 26 29 32 33 33 33 33 32 32 32 31 31 30 31 31 31 30 31
30 27 27 28 21 17 19 19 21 21 23 22 21 22 23 23 23 24 22 26 26 21 20 21 21 23 25 28 31 32 33 33 32 32 31 31 30 29 29 29 30 29 29 30
31 31 29 24 14 15 25 24 23 23 23 23 22 23 24 25 27 27 25 25 27 24 21 21 21 22 24 28 31 32 33 33 32 31 31 30 29 28 28 28 29 28 28 28
34 31 26 24 15 21 25 25 21 22 24 24 23 24 24 25 26 26 27 26 26 28 24 23 23 23 24 27 30 32 32 32 31 31 30 30 29 28 27 27 28 28 28 27
32 33 30 21 15 14 22 21 20 22 23 24 25 25 25 24 22 22 24 28 28 29 28 25 24 24 25 26 30 31 31 31 30 30 30 30 28 27 26 26 27 28 27 28
27 29 28 22 20 20 24 19 19 19 23 17 20 22 23 24 24 24 24 24 29 31 30 26 24 25 25 27 30 30 31 31 30 30 30 29 28 27 26 26 27 27 28 29
27 25 25 26 25 21 26 19 21 25 19 14 16 19 22 26 26 26 23 24 27 30 27 27 25 26 26 29 29 29 30 30 30 30 29 28 27 26 26 26 26 26 28 26
27 26 25 26 25 26 24 26 24 22 20 14 14 16 17 19 23 26 24 24 29 29 28 28 26 26 27 29 28 28 29 30 30 29 28 27 26 26 26 26 26 26 26 26
28 28 26 26 27 28 27 25 24 22 22 21 17 18 16 17 19 22 27 26 28 29 28 28 27 26 27 28 28 27 28 30 30 29 28 26 26 26 25 26 26 26 26 25
27 28 25 24 27 26 27 29 28 29 27 25 24 22 21 22 23 23 24 27 27 29 29 28 27 26 27 28 28 28 28 30 30 29 27 26 27 26 25 25 26 26 26 26
27 26 26 26 28 28 27 29 30 29 28 29 28 27 26 23 24 23 24 26 27 28 30 28 28 27 27 28 28 28 29 30 30 28 27 26 26 25 25 25 24 28 28 29
Lifted_Index
5 5 4 5 5 4 4 4 5 7 8 7 6 6 6 7 7 8 9 10 11 12 13 14 15 17 17 15 13 12 10 8 8 7 7 7 6 6 6 7 8 8 7 6
5 5 5 5 5 4 4 4 5 6 7 7 6 5 5 6 7 7 9 10 11 12 13 14 15 16 16 15 13 11 10 8 8 7 7 6 5 4 5 6 7 7 6 5
5 5 5 5 5 5 4 5 6 6 6 6 5 4 4 5 6 7 8 10 11 12 13 14 14 15 16 15 14 12 10 8 7 6 6 5 3 2 3 4 5 5 4 3
5 5 5 5 5 5 5 6 7 6 5 5 4 3 3 4 5 6 7 9 11 12 13 13 14 15 16 15 14 12 10 8 7 6 5 4 3 1 1 2 3 3 3 2
5 6 5 5 6 6 7 8 7 7 5 4 3 3 3 3 4 5 7 9 10 12 13 13 14 16 16 16 14 12 10 8 7 6 5 4 3 2 1 1 1 2 1 0
5 6 6 6 7 8 8 7 6 5 4 3 3 3 3 3 4 5 7 9 10 12 12 13 14 16 17 16 14 12 10 8 7 6 5 4 3 2 1 1 1 1 0 -0
3 4 6 7 7 8 8 6 4 3 2 2 3 3 3 4 5 6 7 9 10 11 12 13 14 15 16 16 14 12 10 8 7 6 5 4 4 3 2 2 2 1 1 1
2 3 5 7 7 7 6 5 3 2 1 2 3 3 4 5 6 7 8 9 10 11 11 12 13 15 16 16 14 12 10 8 7 6 5 4 4 3 2 2 2 2 2 2
2 3 5 7 8 7 6 5 5 3 2 2 2 3 4 5 6 7 8 9 10 10 11 12 13 15 16 16 14 12 10 8 7 6 6 5 4 3 2 2 2 2 2 2
3 4 5 6 7 7 6 5 5 4 3 1 1 2 4 5 5 6 7 8 9 10 11 12 13 14 16 16 14 12 11 9 8 7 6 5 5 4 3 3 2 2 2 2
4 3 3 4 5 5 5 5 4 4 3 2 1 2 4 5 5 6 7 8 9 10 11 12 13 14 15 16 14 13 11 10 8 7 7 6 6 5 4 3 3 2 2 2
4 3 2 2 4 5 5 4 4 4 3 3 2 2 4 6 6 7 7 8 9 10 11 11 12 13 15 15 14 13 12 11 9 8 8 7 6 6 5 5 4 4 4 4
4 3 2 2 3 4 4 4 4 4 4 3 2 3 4 5 6 6 7 8 9 10 10 11 12 13 14 15 14 13 13 12 10 9 9 8 7 7 6 6 6 6 6 6
4 3 2 2 3 3 3 4 4 5 4 3 2 2 3 4 5 5 7 8 8 9 10 10 11 12 13 14 14 13 13 13 12 10 9 9 8 8 8 8 8 8 8 9
4 3 2 2 3 4 4 4 4 4 4 3 2 2 2 3 4 4 5 6 7 8 9 10 10 11 13 14 14 14 13 13 13 12 11 10 10 10 10 10 10 11 11 12
3 2 2 2 3 4 4 4 4 4 3 3 3 2 3 3 4 4 5 6 6 7 8 9 10 11 12 13 14 13 14 14 14 13 13 12 12 12 13 13 13 13 13 13
3 2 2 2 3 3 4 4 4 3 3 3 3 3 3 4 5 5 5 6 6 6 8 9 10 10 11 12 13 14 14 15 15 15 15 15 15 15 14 14 14 14 14 13
3 3 3 2 3 3 4 4 4 3 3 3 4 4 4 5 5 5 6 6 6 6 8 9 9 10 11 12 13 14 14 15 16 16 16 16 16 16 15 14 14 14 13 13
3 3 3 3 3 3 4 5 4 4 3 4 4 4 5 6 5 5 6 7 7 7 8 9 9 10 11 11 13 14 14 14 15 15 16 16 16 16 15 14 14 14 13 13
3 3 3 3 3 3 4 5 5 4 3 4 4 5 6 6 5 5 7 8 8 8 8 9 9 10 10 11 12 13 14 14 14 15 15 16 16 16 15 15 14 14 14 13
2 2 2 2 2 3 4 4 4 3 3 4 5 5 6 6 6 6 8 8 9 9 9 9 9 9 10 11 11 12 13 13 14 14 15 15 15 15 15 15 14 14 14 13
2 2 2 2 2 3 4 4 3 3 4 4 5 6 6 6 6 7 8 9 9 9 9 9 9 9 10 11 11 11 12 13 14 14 14 14 15 15 15 15 14 14 14 13
3 2 2 2 2 3 3 3 3 3 4 5 5 6 6 6 7 7 7 9 9 10 9 9 9 9 10 10 11 11 11 13 14 14 14 14 14 14 14 14 14 14 13 13
3 3 3 3 3 3 3 3 3 3 4 5 6 6 7 7 7 7 7 8 9 10 10 10 9 9 9 10 10 11 11 13 14 14 14 14 14 14 14 14 14 14 13 13
3 3 3 3 3 3 4 4 3 4 4 5 6 6 7 7 7 7 7 8 9 9 10 10 10 9 9 9 10 10 11 12 13 14 14 14 14 14 14 14 14 14 14 14
3 3 3 3 3 3 3 3 4 4 5 5 6 6 7 7 7 7 7 7 8 9 10 10 10 9 9 9 10 10 11 12 12 13 14 14 14 14 14 14 14 14 14 14